Location: ???? ?????
(37.9132°N, 22.9869°E)
Time: 10:39:51
(UTC+00:00)

Cosmos 1821 Rocket - Pass Details

Date: 04 August 2024
Orbit: 943 x 1005 km, 82.9° (Epoch: 18 September)

Event Time Altitude Azimuth Distance (km) Brightness Sun altitude
Rises 18:05:30 0° 169° (S) 3,699 6.7 -6.5°
Reaches altitude 10° 18:08:05 10° 164° (SSE) 2,760 6.0 -7.0°
Maximum altitude 18:14:10 51° 91° (E) 1,249 4.3 -8.0°
Drops below altitude 10° 18:20:19 10° 18° (NNE) 2,786 6.6 -9.1°
Sets 18:22:55 0° 13° (NNE) 3,737 7.3 -9.5°
